Regional Weather Roundup
Issued by NWS

Home | Current Version | Previous Version | Graphics & Text | Print | Product List | Glossary On
Versions: 1 2 3 4 5 6 7 8 9 10 11 12 13 14 15 16 17 18 19 20 21 22 23 24 25 26 27 28 29 30 31 32 33 34 35 36 37 38 39 40 41 42 43 44 45 46 47 48 49 50
000
ASUS45 KBOI 310210
RWRID

IDAHO REGIONAL WEATHER ROUNDUP
NATIONAL WEATHER SERVICE BOISE ID
800 PM MDT MON MAY 30 2016

NOTE: "FAIR" INDICATES FEW OR NO CLOUDS BELOW 12000 FEET
WITH NO SIGNIFICANT WEATHER AND/OR OBSTRUCTIONS TO VISIBILITY

IDZ012-014-310300-
SOUTHWEST IDAHO


CITY           SKY/WX    TMP DP  RH WIND       PRES   REMARKS
BOISE          SUNNY     74  24  15 NW15      30.06S
CALDWELL       SUNNY     73  32  22 NW6       30.07S
MOUNTAIN HOME  SUNNY     76  35  22 NW23      30.05S
$$

IDZ016-017-310300-
SOUTHCENTRAL IDAHO


CITY           SKY/WX    TMP DP  RH WIND       PRES   REMARKS
BURLEY         CLEAR     67  28  23 W13G21    30.06S
JEROME         SUNNY     68  26  20 W16G25    30.06F
TWIN FALLS     SUNNY     67  29  24 W16       30.08S
$$

IDZ019>023-310300-
SOUTHEAST IDAHO


CITY           SKY/WX    TMP DP  RH WIND       PRES   REMARKS
IDAHO FALLS    MOCLDY    66  33  29 S14       30.06R
POCATELLO      PTCLDY    67  29  24 SW16      30.08
REXBURG        CLEAR     65  36  34 VRB6      30.06R
$$

IDZ006-010-011-018-031-032-310300-
CENTRAL IDAHO MOUNTAINS


CITY           SKY/WX    TMP DP  RH WIND       PRES   REMARKS
MCCALL         SUNNY     62  22  21 W9        30.15S
HAILEY         SUNNY     66  36  32 SW9       30.06S
STANLEY          N/A     62  27  26 VRB7      30.16S
SALMON         SUNNY     66  30  26 N7        30.06S
CHALLIS        SUNNY     66  26  22 NE13      30.07R
$$

IDZ002-004-006-007-026-310300-
NORTHERN IDAHO


CITY           SKY/WX    TMP DP  RH WIND       PRES   REMARKS
LEWISTON       SUNNY     73  31  21 N6        30.14S
LOWELL           N/A     61  44  53 CALM      30.14R
COEUR D`ALENE  SUNNY     66  36  32 SW5       30.13S
MULLAN PASS    SUNNY     50  29  44 MISG      30.24S
$$



USA.gov is the U.S. government's official web portal to all federal, state and local government web resources and services.